Vorticity
25 26 26 26 27 26 26 26 26 26 26 25 24 24 23 23 22 22 21 21 20 19 18 18 16 15 15 14 13 13 12 12 11 11 10 10 10 9 9 9 8 8 8 7 7 7 8 8 8 10 11 12 12 12 10 9 8 9 11 12 9 7 7 8 7 6 3 1 0
15 16 17 17 18 19 20 20 21 22 23 24 24 24 24 23 23 23 22 22 22 21 20 20 19 18 17 17 16 15 14 13 13 12 12 12 11 11 10 10 10 10 9 9 9 9 8 8 8 9 10 11 12 12 11 10 7 7 9 12 11 8 5 4 7 11 13 12 2
19 19 18 17 17 16 16 16 17 17 18 19 20 21 22 23 23 23 23 23 23 23 22 22 21 20 20 19 18 17 16 15 15 14 14 14 13 13 13 12 12 12 12 11 10 10 10 9 9 9 9 10 11 12 12 11 9 7 7 10 12 11 7 4 3 4 6 11 4
27 26 26 24 23 21 20 19 18 17 16 16 16 17 18 18 19 20 21 22 23 23 23 23 22 22 21 20 20 19 19 18 17 17 17 17 16 16 15 15 15 14 14 13 13 12 12 12 11 10 10 10 11 12 12 12 10 7 6 6 9 12 12 9 3 -3 -7 -3 0
36 37 37 37 34 32 29 26 24 22 20 18 17 16 16 16 16 17 17 19 20 21 21 22 22 22 22 21 21 21 21 21 20 19 19 19 19 19 19 18 18 17 17 16 16 15 15 14 14 13 12 12 12 12 12 12 10 8 6 4 5 8 11 12 8 3 -2 -2 0
39 42 45 47 47 46 44 40 36 32 28 25 23 21 19 18 17 16 16 16 16 17 18 19 20 21 21 22 22 22 22 22 21 21 21 21 21 21 22 22 22 21 20 19 18 18 17 17 17 16 15 13 13 12 12 13 12 10 7 5 4 5 8 11 11 10 7 6 4
28 32 37 42 46 49 51 51 49 45 41 37 33 30 27 25 22 20 18 17 16 16 16 16 17 18 19 20 21 21 22 22 22 22 22 22 23 23 23 23 24 24 24 23 22 21 20 19 19 18 17 16 15 14 14 13 12 11 9 7 5 5 6 9 11 12 11 10 8
14 19 25 31 38 43 48 52 54 53 52 49 45 41 38 35 32 30 27 24 22 19 18 17 17 17 17 18 18 19 20 21 21 22 22 22 22 23 24 24 25 26 26 26 25 24 23 21 20 20 20 21 21 20 18 14 13 12 11 10 8 7 6 7 9 11 11 11 10
4 7 11 16 23 31 39 47 52 55 56 55 53 51 48 46 43 41 38 35 32 29 26 23 21 20 18 18 18 18 19 20 20 21 21 21 22 22 23 23 24 24 25 26 26 25 24 23 23 23 24 24 23 22 21 18 16 14 13 12 10 8 7 6 7 8 10 11 11
1 2 3 5 9 14 22 31 40 47 53 55 55 54 53 51 49 48 46 43 41 38 35 32 28 25 23 22 22 22 23 24 24 25 25 26 26 26 26 26 25 24 24 25 25 25 25 27 26 25 23 21 19 20 22 23 20 18 16 14 11 9 8 7 6 7 8 9 10
1 1 0 0 2 4 8 13 22 31 39 47 51 52 53 52 51 49 48 46 44 42 40 37 35 34 33 34 34 35 35 35 35 35 34 34 34 33 31 29 28 26 25 25 26 27 28 29 28 25 22 19 19 21 24 26 24 22 20 17 14 11 9 8 7 6 7 7 8
3 2 2 1 1 1 2 4 8 13 20 29 36 42 46 48 48 47 46 45 44 43 42 42 42 42 42 42 42 41 41 40 39 37 36 34 31 28 26 27 28 28 28 26 26 27 28 28 27 25 23 21 22 22 23 24 24 24 23 22 19 15 12 10 8 7 7 6 6
5 5 5 4 4 3 3 3 3 5 8 12 18 24 30 36 39 41 42 42 41 41 40 40 39 36 32 29 27 26 26 27 27 26 24 22 21 21 22 23 24 24 25 25 25 26 26 26 26 25 24 23 22 21 20 20 21 22 23 24 23 21 18 15 12 10 8 7 6
7 7 8 8 6 6 5 6 6 5 5 5 7 11 15 20 26 30 34 36 36 35 33 30 24 17 12 10 8 8 8 9 10 10 10 11 16 20 22 22 19 18 17 17 19 21 22 24 24 24 24 23 22 21 20 19 19 20 21 23 23 23 22 20 18 15 12 10 8
11 12 13 13 12 11 9 9 9 9 8 7 6 6 7 9 13 17 22 26 28 28 24 18 10 5 3 3 3 4 5 6 7 7 9 12 16 19 21 20 18 16 15 14 16 17 18 20 21 22 23 23 23 22 22 21 20 19 19 20 20 21 22 23 23 21 19 17 14
16 16 16 16 16 15 14 13 12 12 11 11 10 9 8 7 8 9 12 16 19 21 20 15 10 7 6 8 9 11 12 14 15 15 16 17 18 18 18 18 17 16 15 15 15 15 16 17 18 19 20 21 21 21 21 20 20 19 18 18 18 19 20 20 22 23 23 22 20
15 15 15 14 14 14 14 13 12 12 13 13 13 13 12 10 9 9 9 10 12 15 17 18 16 15 15 15 17 18 20 21 21 21 20 19 18 18 18 17 17 17 16 16 16 15 16 16 17 18 19 20 20 21 20 20 20 19 19 18 18 18 19 19 19 20 21 21 21
12 11 9 8 8 9 9 9 9 11 12 14 15 15 15 14 13 12 10 9 9 10 13 16 18 20 21 21 21 21 22 23 23 22 21 20 20 20 20 20 20 20 20 19 19 18 18 18 19 19 19 20 21 21 22 22 21 21 21 20 19 19 18 18 18 18 18 18 18
10 8 6 5 4 3 3 3 5 8 10 13 15 16 16 15 15 14 13 11 10 9 9 9 12 14 16 16 14 12 12 14 17 18 18 16 16 16 17 18 19 20 21 22 22 22 22 22 22 22 21 21 22 22 22 23 22 22 22 22 22 22 22 20 19 18 17 16 15
9 8 7 6 4 3 1 -0 0 3 6 9 11 13 15 15 15 15 15 15 15 14 12 10 8 5 3 1 -2 -4 -4 -1 6 10 11 9 7 5 4 5 8 10 13 14 16 16 17 17 17 18 18 18 19 19 19 20 20 20 20 20 21 23 24 23 22 21 19 18 16
7 8 8 8 7 6 4 1 -1 -1 1 3 6 8 10 12 12 13 14 16 17 18 17 16 14 10 6 1 -4 -6 -5 -3 1 5 8 11 12 11 9 5 2 2 3 4 5 6 5 5 4 4 5 5 6 8 9 10 12 13 15 16 18 19 21 22 23 23 22 22 20
6 7 7 8 8 8 8 6 3 1 0 1 3 5 7 7 8 9 10 12 13 13 14 15 16 17 16 14 13 12 12 10 7 5 4 5 11 17 22 23 17 12 9 8 8 9 10 10 9 8 6 4 3 2 3 4 5 7 9 10 12 15 17 18 20 21 22 23 23
7 7 7 8 8 9 9 9 8 7 6 6 7 8 8 8 7 7 7 7 7 7 8 9 11 13 15 15 15 14 14 11 8 3 -1 -5 -3 3 13 23 23 19 14 10 10 12 15 18 20 21 20 19 17 15 13 11 9 9 9 10 11 12 13 14 15 17 18 19 20
9 9 9 9 9 9 9 9 10 10 11 11 12 13 12 12 10 9 8 7 6 6 6 7 9 10 10 10 8 6 6 7 8 6 3 -2 -6 -6 -2 7 12 11 7 2 2 4 7 11 14 15 17 19 21 22 20 17 12 8 5 3 4 6 8 9 11 13 15 16 17
10 11 11 11 11 11 11 11 11 12 13 14 14 14 14 14 14 13 11 10 9 8 8 9 9 10 10 9 8 9 12 17 21 21 19 15 10 6 4 6 8 7 4 1 2 3 6 9 12 15 17 18 19 20 21 21 19 16 11 6 3 1 0 1 3 5 7 10 13
12 12 12 12 12 12 12 12 12 12 12 12 12 13 13 14 14 14 13 12 12 11 11 11 11 11 11 11 11 12 13 16 20 22 23 21 18 16 14 15 15 16 16 15 14 13 13 12 12 12 11 11 11 12 14 17 21 24 27 28 25 21 16 11 8 6 4 4 5
11 11 11 11 11 11 10 10 10 10 9 9 9 9 10 10 11 11 11 11 11 11 11 11 10 10 10 10 10 10 10 10 12 12 13 13 12 11 12 13 15 16 17 17 15 14 12 11 11 10 10 10 9 8 8 8 10 13 16 19 22 24 24 23 20 18 15 13 11
9 9 9 8 8 8 8 7 7 7 7 7 6 6 6 7 7 7 7 8 8 8 8 8 8 8 8 8 7 7 7 7 7 8 8 8 8 9 9 9 9 9 8 8 7 7 6 6 6 6 6 7 8 8 7 6 6 5 6 7 9 11 13 15 17 18 18 18 17
7 7 7 6 6 6 6 6 5 5 5 5 5 5 5 5 4 4 4 4 4 4 4 4 4 4 4 4 4 4 4 4 4 4 5 5 5 5 5 5 4 4 3 3 2 2 2 2 2 2 2 3 3 4 4 4 4 3 3 3 3 3 4 5 7 9 11 12 12
6 6 5 5 5 5 5 5 5 5 5 5 4 4 4 4 3 3 3 3 3 2 2 2 2 2 2 2 2 2 2 2 2 2 2 2 2 2 2 2 1 1 1 1 1 1 1 1 1 1 1 1 1 1 1 2 2 2 2 1 1 1 1 1 1 1 2 3 5
5 5 5 5 5 5 5 5 4 4 4 4 4 3 3 3 3 3 2 2 2 2 2 2 2 2 2 2 2 2 1 1 1 1 1 1 1 1 1 1 1 1 1 1 2 2 1 1 1 1 1 1 1 1 1 1 1 1 2 2 1 1 1 1 1 1 1 1 1
5 5 5 5 4 4 4 4 4 4 3 3 3 3 2 2 2 2 2 2 1 1 1 1 1 1 1 1 1 1 1 1 1 1 1 1 1 1 1 1 1 1 1 1 1 2 2 2 2 2 2 2 2 2 2 2 2 2 2 2 2 2 2 2 2 2 2 2 2
4 4 4 4 4 4 3 3 3 3 3 2 2 2 2 2 2 1 1 1 1 1 1 1 1 1 1 1 1 1 1 1 1 1 1 1 1 1 1 1 1 1 1 2 2 2 2 2 2 2 2 2 2 2 2 2 2 2 2 2 2 2 2 2 2 2 2 2 2
4 4 4 4 3 3 3 3 3 2 2 2 2 2 2 1 1 1 1 1 1 1 1 1 1 1 1 1 1 1 1 1 1 1 1 1 1 1 2 2 2 2 2 2 2 2 2 2 2 2 2 2 3 3 3 3 3 3 3 3 3 3 3 3 3 3 3 3 3
4 4 4 3 3 3 3 2 2 2 2 2 2 2 2 1 1 1 1 1 1 1 1 1 1 1 1 1 1 1 1 2 2 2 2 2 2 2 2 2 2 3 3 3 3 3 3 3 3 3 4 4 4 4 4 4 4 4 4 4 4 4 4 4 4 4 4 4 4
4 3 3 3 3 3 2 2 2 2 2 2 2 2 2 1 1 1 1 1 1 1 1 1 1 2 2 2 2 2 2 2 2 3 3 3 3 3 3 4 4 4 4 4 4 5 5 5 5 5 5 5 6 6 6 6 6 6 5 5 5 5 5 5 5 5 5 5 5
3 3 3 3 3 3 2 2 2 2 2 2 2 2 2 1 1 1 1 1 1 2 2 2 2 2 2 2 3 3 3 3 3 3 4 4 4 4 5 5 5 6 6 6 6 6 7 7 7 7 7 7 7 7 7 7 7 7 7 7 7 7 7 7 6 6 6 6 6
3 3 3 3 3 3 2 2 2 2 2 2 2 2 2 2 2 2 2 2 2 2 2 3 3 3 3 3 3 4 4 4 4 5 5 5 6 6 6 7 7 8 8 8 8 8 8 9 9 8 8 8 8 8 8 8 8 8 8 7 7 7 7 7 7 7 6 6 6
3 3 3 3 3 3 2 2 2 2 2 2 2 2 2 2 2 2 2 3 3 3 3 4 4 4 4 4 5 5 5 6 6 6 7 8 8 8 9 9 9 10 10 10 10 10 10 10 9 9 9 9 8 8 8 8 8 7 7 7 7 6 6 6 6 5 5 5 5
3 3 3 3 3 3 3 3 2 2 2 2 2 2 3 3 3 3 3 4 4 4 4 4 5 5 5 6 6 7 7 8 8 9 9 10 10 11 11 11 11 11 11 10 10 10 9 9 8 8 8 7 7 7 6 6 6 6 6 5 5 5 5 4 4 4 3 3 3
3 3 3 3 3 3 3 3 3 3 3 3 3 3 3 3 4 4 4 5 5 5 5 5 6 6 7 7 8 8 9 10 10 11 11 11 11 11 11 10 10 10 9 9 8 8 7 7 6 6 5 5 5 5 4 4 4 4 4 4 3 3 3 3 3 2 2 2 2
Height
5624 5624 5624 5624 5625 5625 5625 5625 5625 5626 5626 5626 5627 5628 5629 5630 5631 5632 5633 5635 5636 5638 5640 5641 5643 5644 5646 5648 5650 5651 5652 5654 5656 5657 5658 5659 5661 5662 5664 5665 5666 5668 5670 5672 5673 5675 5676 5678 5679 5681 5682 5684 5685 5687 5688 5690 5692 5693 5693 5694 5695 5696 5698 5698 5699 5700 5701 5703 5704
5621 5621 5622 5622 5622 5622 5622 5622 5622 5622 5622 5622 5623 5624 5625 5626 5626 5627 5628 5630 5631 5633 5634 5636 5637 5639 5641 5643 5644 5646 5647 5649 5650 5651 5653 5654 5656 5657 5658 5660 5661 5664 5666 5667 5668 5669 5671 5672 5674 5675 5676 5678 5680 5682 5683 5685 5687 5688 5689 5690 5691 5693 5693 5694 5694 5696 5697 5698 5698
5619 5619 5619 5619 5618 5618 5618 5618 5618 5618 5618 5619 5619 5620 5620 5621 5622 5623 5624 5625 5626 5628 5629 5631 5632 5634 5636 5637 5639 5640 5642 5643 5645 5646 5648 5649 5651 5652 5653 5655 5656 5659 5661 5661 5663 5664 5665 5667 5668 5670 5671 5673 5675 5676 5678 5680 5681 5683 5684 5686 5687 5689 5690 5691 5691 5692 5693 5693 5694
5617 5616 5616 5616 5615 5615 5615 5614 5614 5614 5614 5614 5615 5615 5616 5617 5618 5619 5620 5621 5622 5623 5625 5626 5628 5630 5631 5632 5634 5635 5637 5638 5640 5641 5643 5644 5646 5647 5648 5650 5651 5653 5655 5657 5658 5659 5660 5661 5663 5665 5666 5668 5670 5672 5674 5676 5677 5679 5680 5681 5682 5684 5685 5686 5687 5689 5689 5689 5690
5615 5614 5613 5613 5612 5611 5611 5610 5610 5610 5610 5610 5610 5611 5611 5612 5613 5614 5615 5617 5618 5619 5621 5622 5624 5625 5627 5628 5630 5631 5632 5634 5635 5637 5638 5640 5641 5642 5644 5646 5647 5648 5650 5652 5653 5654 5655 5657 5658 5660 5662 5664 5666 5667 5669 5671 5672 5674 5675 5676 5677 5678 5679 5680 5682 5684 5685 5685 5686
5613 5612 5611 5610 5609 5608 5607 5606 5606 5606 5606 5606 5606 5606 5607 5608 5609 5610 5611 5612 5614 5615 5617 5618 5620 5621 5623 5624 5626 5627 5628 5630 5631 5633 5634 5635 5637 5638 5640 5641 5643 5644 5646 5647 5649 5650 5651 5652 5654 5656 5657 5659 5661 5663 5664 5666 5667 5668 5669 5671 5672 5674 5675 5677 5678 5679 5680 5680 5681
5611 5610 5609 5608 5607 5606 5605 5603 5603 5602 5601 5601 5602 5602 5603 5603 5605 5606 5607 5608 5610 5611 5613 5615 5616 5618 5620 5621 5622 5624 5625 5626 5628 5629 5631 5632 5633 5635 5636 5637 5639 5640 5642 5643 5644 5646 5647 5648 5650 5651 5653 5655 5657 5658 5660 5661 5663 5664 5665 5666 5668 5670 5672 5673 5674 5675 5676 5676 5677
5610 5609 5608 5606 5605 5604 5602 5601 5600 5599 5598 5598 5598 5598 5599 5600 5601 5602 5603 5605 5606 5608 5610 5612 5614 5615 5617 5618 5619 5621 5622 5623 5624 5626 5627 5628 5630 5631 5632 5634 5635 5636 5638 5639 5641 5642 5643 5644 5646 5648 5649 5651 5653 5654 5656 5657 5658 5659 5661 5662 5665 5666 5668 5669 5669 5671 5671 5672 5673
5610 5608 5607 5605 5604 5602 5601 5600 5598 5597 5596 5596 5596 5596 5596 5596 5597 5599 5600 5602 5603 5605 5607 5609 5611 5612 5614 5615 5617 5618 5619 5621 5622 5623 5624 5626 5627 5628 5630 5631 5632 5633 5634 5636 5637 5638 5639 5641 5643 5644 5646 5647 5649 5651 5652 5653 5654 5655 5656 5659 5661 5662 5663 5664 5665 5666 5667 5668 5669
5609 5608 5606 5605 5603 5602 5601 5600 5598 5597 5596 5595 5594 5594 5594 5594 5595 5596 5597 5599 5600 5602 5604 5606 5608 5610 5611 5613 5615 5616 5617 5618 5620 5621 5622 5623 5625 5626 5627 5628 5629 5630 5632 5633 5634 5635 5636 5638 5640 5641 5642 5644 5645 5646 5648 5649 5650 5651 5653 5655 5656 5658 5659 5659 5661 5661 5663 5664 5665
5608 5607 5606 5605 5603 5602 5601 5600 5598 5597 5596 5595 5594 5593 5593 5593 5593 5594 5595 5596 5598 5600 5601 5603 5606 5607 5610 5611 5613 5615 5616 5617 5618 5619 5620 5621 5622 5623 5625 5625 5626 5628 5630 5631 5632 5633 5634 5636 5637 5638 5640 5641 5642 5643 5644 5645 5646 5647 5649 5651 5652 5653 5654 5655 5656 5657 5658 5660 5661
5608 5607 5606 5605 5604 5603 5602 5601 5600 5598 5597 5596 5595 5594 5593 5593 5593 5594 5594 5596 5597 5598 5600 5602 5604 5606 5608 5610 5612 5613 5614 5615 5616 5617 5618 5619 5621 5622 5622 5622 5623 5625 5626 5627 5629 5630 5631 5632 5634 5635 5636 5637 5639 5640 5641 5641 5642 5644 5645 5646 5648 5650 5650 5651 5652 5653 5654 5656 5657
5608 5606 5606 5605 5604 5603 5602 5601 5601 5600 5598 5597 5596 5596 5595 5595 5595 5595 5595 5596 5597 5598 5600 5601 5603 5606 5608 5609 5610 5611 5612 5613 5614 5615 5616 5617 5619 5619 5620 5621 5621 5622 5623 5624 5625 5626 5628 5629 5630 5632 5633 5634 5635 5636 5637 5638 5639 5640 5641 5643 5645 5646 5646 5647 5648 5649 5651 5652 5653
5608 5606 5606 5604 5603 5603 5602 5602 5601 5601 5600 5599 5598 5597 5597 5597 5596 5597 5597 5597 5598 5599 5600 5602 5603 5605 5606 5607 5608 5610 5611 5612 5613 5614 5615 5616 5616 5617 5618 5619 5620 5621 5621 5622 5623 5624 5625 5626 5627 5628 5630 5631 5631 5633 5634 5635 5636 5637 5638 5640 5641 5642 5643 5644 5645 5646 5647 5648 5649
5607 5606 5605 5604 5603 5603 5602 5602 5601 5601 5600 5600 5599 5598 5598 5598 5598 5599 5599 5599 5600 5601 5601 5602 5603 5604 5605 5606 5607 5608 5609 5611 5612 5613 5614 5615 5615 5616 5616 5617 5618 5619 5619 5620 5621 5622 5622 5623 5624 5625 5626 5627 5628 5629 5630 5631 5632 5633 5635 5636 5637 5638 5639 5640 5641 5642 5643 5644 5645
5607 5606 5605 5604 5603 5603 5603 5603 5602 5602 5601 5600 5600 5599 5599 5599 5599 5600 5600 5601 5601 5602 5602 5603 5604 5604 5605 5606 5606 5608 5609 5610 5611 5611 5612 5613 5614 5614 5615 5615 5616 5617 5617 5618 5619 5620 5620 5621 5622 5622 5623 5624 5625 5626 5626 5627 5628 5629 5631 5631 5633 5634 5636 5636 5637 5638 5639 5639 5640
5607 5606 5606 5605 5604 5603 5603 5603 5603 5602 5602 5601 5601 5600 5600 5600 5601 5601 5601 5602 5603 5603 5604 5604 5605 5605 5606 5606 5607 5607 5608 5609 5610 5611 5611 5612 5612 5613 5613 5614 5615 5615 5616 5616 5617 5618 5618 5619 5620 5620 5621 5622 5622 5623 5624 5625 5625 5626 5626 5627 5628 5630 5630 5631 5632 5633 5634 5635 5636
5607 5607 5606 5606 5605 5604 5603 5603 5603 5602 5602 5602 5601 5601 5601 5601 5601 5602 5602 5603 5603 5604 5605 5605 5606 5606 5606 5607 5607 5608 5608 5609 5610 5610 5611 5611 5611 5612 5612 5613 5614 5614 5615 5615 5616 5616 5617 5617 5618 5618 5619 5620 5620 5621 5621 5622 5623 5623 5624 5625 5625 5626 5626 5626 5627 5628 5629 5630 5631
5608 5608 5607 5606 5606 5605 5604 5604 5603 5603 5603 5602 5602 5602 5602 5602 5602 5603 5603 5604 5604 5605 5605 5606 5606 5607 5607 5608 5608 5609 5609 5610 5610 5610 5611 5611 5611 5612 5612 5613 5613 5614 5614 5614 5615 5615 5615 5616 5616 5617 5617 5618 5618 5619 5619 5620 5620 5621 5622 5622 5623 5623 5623 5623 5624 5624 5625 5625 5626
5608 5608 5608 5607 5606 5606 5605 5605 5604 5604 5603 5603 5603 5603 5603 5603 5603 5603 5603 5604 5604 5605 5606 5606 5607 5607 5608 5608 5609 5609 5610 5610 5611 5611 5611 5611 5612 5612 5612 5613 5613 5613 5614 5614 5614 5614 5615 5615 5615 5615 5616 5616 5616 5616 5617 5617 5617 5618 5619 5619 5620 5620 5620 5620 5621 5621 5621 5621 5622
5609 5608 5608 5607 5607 5606 5606 5605 5605 5604 5604 5604 5604 5604 5604 5604 5604 5604 5604 5604 5605 5605 5606 5606 5607 5608 5608 5609 5610 5610 5610 5610 5610 5611 5611 5611 5612 5612 5612 5612 5613 5613 5613 5613 5614 5614 5614 5614 5614 5614 5614 5615 5615 5615 5615 5615 5615 5616 5616 5616 5616 5617 5617 5617 5617 5617 5617 5618 5618
5609 5608 5608 5608 5607 5607 5606 5606 5605 5605 5605 5604 5604 5605 5605 5605 5605 5605 5605 5605 5605 5606 5606 5606 5607 5608 5608 5609 5609 5610 5610 5610 5610 5610 5610 5611 5611 5611 5611 5611 5611 5612 5612 5612 5612 5612 5612 5612 5612 5612 5613 5613 5613 5613 5613 5613 5613 5613 5613 5613 5613 5613 5614 5614 5614 5614 5614 5614 5615
5609 5608 5608 5607 5607 5607 5606 5606 5606 5605 5605 5605 5605 5605 5605 5605 5606 5606 5606 5606 5606 5606 5606 5606 5607 5607 5608 5608 5609 5609 5609 5609 5609 5609 5609 5609 5610 5610 5610 5610 5610 5610 5611 5611 5611 5611 5611 5611 5611 5612 5612 5612 5613 5613 5613 5613 5612 5612 5612 5611 5611 5611 5611 5611 5611 5611 5611 5611 5611
5609 5608 5608 5607 5607 5607 5606 5606 5606 5606 5606 5606 5606 5606 5606 5606 5606 5606 5606 5606 5606 5606 5606 5606 5607 5607 5607 5608 5608 5609 5609 5609 5609 5609 5609 5608 5608 5608 5609 5609 5610 5610 5610 5611 5611 5611 5611 5612 5612 5612 5612 5612 5612 5612 5612 5612 5612 5612 5611 5611 5611 5610 5610 5609 5609 5608 5608 5607 5607
5609 5609 5608 5608 5608 5607 5607 5607 5607 5607 5607 5607 5606 5606 5606 5606 5606 5606 5607 5607 5607 5607 5607 5607 5607 5608 5608 5608 5609 5609 5609 5609 5609 5609 5609 5609 5609 5609 5609 5610 5610 5610 5611 5611 5611 5611 5611 5611 5611 5611 5611 5610 5610 5609 5609 5610 5610 5609 5609 5609 5608 5608 5607 5607 5607 5606 5606 5606 5605
5610 5610 5609 5609 5609 5608 5608 5608 5608 5608 5608 5608 5607 5607 5607 5607 5607 5607 5607 5608 5608 5608 5608 5608 5608 5608 5609 5609 5609 5609 5609 5609 5609 5609 5609 5609 5610 5610 5610 5610 5610 5610 5610 5610 5610 5609 5609 5609 5609 5608 5608 5608 5608 5608 5607 5607 5607 5606 5606 5606 5605 5605 5604 5604 5603 5603 5602 5602 5601
5611 5611 5610 5610 5610 5609 5609 5609 5609 5609 5609 5609 5608 5608 5608 5608 5608 5608 5608 5609 5609 5609 5609 5609 5609 5609 5609 5609 5609 5609 5609 5609 5609 5609 5609 5609 5609 5609 5609 5609 5609 5609 5609 5608 5608 5608 5607 5607 5607 5606 5606 5606 5606 5606 5606 5605 5605 5604 5604 5604 5603 5603 5602 5601 5601 5600 5599 5597 5596
5611 5611 5611 5611 5611 5610 5610 5610 5610 5610 5610 5609 5609 5609 5609 5609 5609 5609 5609 5609 5609 5609 5610 5610 5610 5610 5610 5610 5610 5610 5610 5609 5609 5609 5609 5609 5609 5609 5609 5609 5608 5608 5608 5607 5607 5606 5606 5606 5606 5605 5605 5605 5604 5604 5603 5603 5602 5602 5601 5601 5601 5600 5600 5599 5598 5597 5596 5595 5594
5612 5612 5611 5611 5611 5611 5611 5611 5611 5611 5610 5610 5610 5610 5610 5610 5610 5610 5610 5610 5610 5610 5610 5610 5610 5610 5610 5610 5610 5610 5610 5610 5610 5610 5609 5609 5609 5609 5609 5608 5608 5607 5607 5606 5606 5606 5605 5605 5604 5604 5603 5603 5602 5602 5601 5601 5600 5599 5599 5598 5597 5597 5596 5596 5595 5594 5593 5592 5591
5612 5612 5612 5612 5612 5611 5611 5611 5611 5611 5611 5611 5611 5611 5611 5611 5611 5611 5611 5611 5611 5611 5611 5611 5611 5611 5610 5610 5610 5610 5610 5610 5609 5609 5609 5609 5609 5608 5608 5607 5607 5606 5606 5606 5605 5604 5604 5603 5603 5602 5602 5601 5600 5600 5599 5598 5598 5597 5596 5595 5594 5593 5592 5592 5591 5590 5589 5588 5587
5612 5612 5612 5612 5612 5612 5611 5611 5611 5611 5611 5611 5611 5611 5611 5611 5611 5611 5611 5611 5611 5610 5610 5610 5610 5610 5610 5610 5610 5609 5609 5609 5609 5608 5608 5608 5607 5607 5606 5606 5606 5605 5605 5604 5603 5603 5602 5601 5601 5600 5600 5599 5598 5597 5596 5596 5595 5594 5593 5592 5591 5590 5589 5588 5587 5586 5585 5584 5583
5613 5613 5612 5612 5612 5612 5612 5611 5611 5611 5611 5611 5611 5611 5611 5611 5611 5610 5610 5610 5610 5610 5610 5610 5610 5609 5609 5609 5609 5608 5608 5608 5607 5607 5606 5606 5606 5605 5605 5604 5604 5603 5603 5602 5601 5601 5600 5599 5598 5598 5597 5596 5595 5594 5593 5592 5591 5590 5589 5588 5587 5586 5585 5584 5582 5581 5580 5579 5578
5613 5613 5613 5613 5613 5612 5612 5612 5612 5611 5611 5611 5611 5611 5611 5611 5611 5610 5610 5610 5610 5609 5609 5609 5609 5608 5608 5608 5607 5607 5606 5606 5606 5605 5605 5604 5604 5603 5603 5602 5601 5601 5600 5600 5599 5598 5597 5596 5595 5594 5593 5592 5591 5590 5589 5588 5587 5586 5585 5584 5583 5581 5580 5579 5578 5576 5575 5574 5573
5614 5613 5613 5613 5613 5613 5612 5612 5612 5612 5611 5611 5611 5611 5611 5611 5610 5610 5610 5609 5609 5609 5608 5608 5608 5607 5607 5606 5606 5606 5605 5605 5604 5603 5603 5602 5602 5601 5601 5600 5599 5598 5598 5597 5596 5595 5594 5592 5591 5590 5589 5588 5587 5586 5585 5584 5582 5581 5580 5579 5577 5576 5575 5574 5573 5571 5570 5569 5567
5614 5614 5613 5613 5613 5613 5612 5612 5612 5612 5611 5611 5611 5611 5611 5610 5610 5610 5609 5609 5608 5608 5608 5607 5607 5606 5606 5605 5605 5604 5604 5603 5602 5602 5601 5600 5600 5599 5598 5597 5596 5596 5595 5594 5593 5592 5591 5589 5588 5586 5585 5584 5583 5581 5580 5579 5577 5576 5575 5573 5572 5571 5569 5568 5566 5565 5564 5563 5561
5614 5614 5613 5613 5613 5613 5612 5612 5612 5612 5611 5611 5611 5611 5610 5610 5609 5609 5608 5608 5608 5607 5607 5606 5606 5605 5605 5604 5603 5603 5602 5601 5601 5600 5599 5598 5597 5596 5596 5595 5593 5592 5591 5591 5589 5588 5587 5586 5585 5583 5582 5580 5579 5577 5576 5574 5573 5571 5570 5568 5566 5565 5563 5562 5560 5559 5557 5556 5555
5613 5613 5613 5613 5613 5612 5612 5612 5612 5611 5611 5611 5610 5610 5609 5609 5608 5608 5607 5607 5606 5606 5606 5605 5604 5604 5603 5602 5601 5601 5600 5599 5598 5597 5596 5596 5595 5594 5593 5591 5591 5589 5588 5587 5586 5585 5584 5582 5581 5580 5578 5576 5575 5573 5572 5570 5568 5567 5565 5563 5561 5560 5558 5556 5554 5553 5551 5549 5548
5613 5613 5613 5612 5612 5612 5611 5611 5611 5611 5610 5610 5609 5609 5608 5608 5607 5607 5606 5606 5605 5604 5604 5603 5602 5602 5601 5600 5599 5598 5598 5597 5596 5595 5594 5593 5592 5591 5590 5589 5587 5586 5585 5584 5583 5581 5580 5579 5577 5576 5574 5573 5571 5569 5568 5566 5564 5562 5561 5558 5556 5554 5552 5551 5549 5547 5545 5543 5541
5613 5612 5612 5612 5611 5611 5611 5611 5610 5610 5609 5609 5608 5608 5607 5606 5606 5605 5605 5604 5603 5603 5602 5601 5601 5600 5599 5598 5597 5596 5595 5594 5593 5592 5591 5590 5589 5588 5587 5586 5584 5583 5581 5580 5579 5577 5576 5575 5573 5572 5570 5568 5566 5565 5563 5561 5559 5557 5555 5553 5551 5549 5546 5545 5542 5541 5538 5536 5535
5612 5612 5611 5611 5611 5611 5610 5610 5609 5609 5608 5608 5607 5607 5606 5605 5605 5604 5603 5602 5602 5601 5600 5600 5599 5598 5597 5596 5595 5594 5593 5592 5591 5589 5588 5587 5586 5585 5583 5582 5581 5579 5578 5576 5575 5573 5572 5570 5569 5567 5565 5563 5561 5559 5557 5555 5553 5551 5549 5546 5544 5542 5539 5537 5535 5533 5531 5528 5526
5612 5611 5611 5611 5610 5610 5609 5609 5608 5608 5607 5607 5606 5606 5605 5604 5603 5603 5602 5601 5600 5599 5598 5598 5596 5596 5594 5593 5592 5591 5590 5589 5587 5586 5585 5583 5582 5581 5579 5578 5576 5575 5573 5571 5570 5568 5566 5565 5563 5561 5559 5557 5555 5552 5550 5548 5546 5543 5541 5539 5536 5534 5531 5528 5526 5523 5521 5519 5516